This is the latest recevied weather packets stored in our database for station/object PY2FGD-15. If no packets are shown the sender has not sent any weather packets the latest 10 day(s).
| Time | Temp. | Humidity | Pressure | Rain* | Wind** | Luminosity | Snow |
|---|---|---|---|---|---|---|---|
| 1778198403 | 23.89° C | 74% | 1012 hPa | 2.54 mm | - | - | - |
| 1778194805 | 23.89° C | 72% | 1012 hPa | 2.54 mm | - | - | - |
| 1778193605 | 23.89° C | 67% | 1012 hPa | 2.54 mm | - | - | - |
| 1778182803 | 26.11° C | 62% | 1011 hPa | 2.54 mm | - | - | - |
| 1778181003 | 24.44° C | 56% | 1011 hPa | 2.54 mm | - | - | - |
| 1778179805 | 25° C | 56% | 1011 hPa | 2.54 mm | - | - | - |
| 1778176203 | 24.44° C | 62% | 1012 hPa | 2.54 mm | - | - | - |
| 1778174407 | 25.56° C | 62% | 1012 hPa | 2.54 mm | - | - | - |
| 1778170203 | 23.89° C | 62% | 1014 hPa | 2.54 mm | - | - | - |
| 1778168403 | 23.33° C | 72% | 1014 hPa | 2.54 mm | - | - | - |
| 1778161803 | 22.78° C | 75% | 1016 hPa | 2.54 mm | - | - | - |
| 1778161203 | 22.78° C | 75% | 1016 hPa | 2.54 mm | - | - | - |
| 1778160003 | 22.78° C | 76% | 1017 hPa | 2.54 mm | - | - | - |
| 1778153403 | 17.78° C | 77% | 1017 hPa | 2.54 mm | - | - | - |
| 1778151603 | 19.44° C | 77% | 1017 hPa | 2.54 mm | - | - | - |
| 1778147403 | 17.78° C | 81% | 1017 hPa | 2.54 mm | - | - | - |
| 1778145604 | 13.33° C | 80% | 1016 hPa | 2.54 mm | - | - | - |
| 1778143203 | 15° C | 80% | 1016 hPa | 2.54 mm | - | - | - |
| 1778139604 | 16.67° C | 80% | 1016 hPa | 2.54 mm | - | - | - |
| 1778131803 | 15° C | 77% | 1017 hPa | 2.54 mm | - | - | - |
| 1778125803 | 18.33° C | 77% | 1017 hPa | 2.54 mm | - | - | - |
| 1778122803 | 20° C | 77% | 1017 hPa | 2.54 mm | - | - | - |
| 1778122203 | 20° C | 77% | 1017 hPa | 2.54 mm | - | - | - |
| 1778118603 | 16.11° C | 73% | 1018 hPa | 2.54 mm | - | - | - |
| 1778110803 | 21.11° C | 73% | 1018 hPa | 2.54 mm | - | - | - |
* Rain latest hour (hover to see other rain measurements)
** Current wind speed in m/s (hover to see current wind gust speed)